| time (UTC) | temp F | wind direction | speed knots | gust knots | rain 1hr in | rain 24hr in | rain mn in | humidity % | barometer mb |
| 20260503051503 | 40 | 244 | 2.6 | 4.3 | 0.00 | 0.00 | 0.00 | 85 | 1034.9 |
| 20260503051001 | 41 | 264 | 7.8 | 9.6 | 0.00 | 0.00 | 0.00 | 85 | 1035.3 |
| 20260503050456 | 40 | 257 | 4.3 | 6.1 | 0.00 | 0.00 | 0.00 | 85 | 1035.1 |
| 20260503045955 | 41 | 272 | 2.6 | 6.1 | 0.00 | 0.00 | 0.00 | 84 | 1035.4 |
| 20260503045452 | 41 | 271 | 3.5 | 7.8 | 0.00 | 0.00 | 0.00 | 84 | 1035.2 |
| 20260503044949 | 40 | 285 | 2.6 | 7.8 | 0.00 | 0.00 | 0.00 | 85 | 1035.3 |
| 20260503044445 | 40 | 285 | 2.6 | 8.7 | 0.00 | 0.00 | 0.00 | 85 | 1035.2 |
| 20260503043943 | 40 | 246 | 3.5 | 4.3 | 0.00 | 0.00 | 0.00 | 85 | 1035.6 |
| 20260503043439 | 40 | 297 | 2.6 | 5.2 | 0.00 | 0.00 | 0.00 | 85 | 1035.4 |
| 20260503042935 | 41 | 236 | 8.7 | 8.7 | 0.00 | 0.00 | 0.00 | 84 | 1035.5 |
| 20260503042432 | 40 | 234 | 1.7 | 6.1 | 0.00 | 0.00 | 0.00 | 84 | 1035.3 |
| 20260503041929 | 40 | 267 | 3.5 | 5.2 | 0.00 | 0.00 | 0.00 | 84 | 1035.5 |
| 20260503041425 | 40 | 303 | 0.0 | 7.0 | 0.00 | 0.00 | 0.00 | 84 | 1035.5 |
| 20260503040923 | 41 | 269 | 3.5 | 6.1 | 0.00 | 0.00 | 0.00 | 83 | 1035.5 |
| 20260503040420 | 41 | 266 | 3.5 | 7.0 | 0.00 | 0.00 | 0.00 | 83 | 1035.6 |
| 20260503035918 | 41 | 259 | 2.6 | 7.0 | 0.00 | 0.00 | 0.00 | 84 | 1035.6 |
| 20260503035414 | 41 | 214 | 4.3 | 6.1 | 0.00 | 0.00 | 0.00 | 84 | 1035.4 |
| 20260503034912 | 41 | 228 | 4.3 | 7.0 | 0.00 | 0.00 | 0.00 | 84 | 1035.4 |
| 20260503034409 | 41 | 242 | 2.6 | 4.3 | 0.00 | 0.00 | 0.00 | 84 | 1035.7 |
| 20260503033906 | 41 | 269 | 1.7 | 5.2 | 0.00 | 0.00 | 0.00 | 83 | 1035.6 |
| 20260503033404 | 41 | 259 | 3.5 | 6.1 | 0.00 | 0.00 | 0.00 | 83 | 1035.7 |
| 20260503032901 | 41 | 285 | 2.6 | 4.3 | 0.00 | 0.00 | 0.00 | 82 | 1035.7 |
| 20260503032400 | 41 | 304 | 2.6 | 7.0 | 0.00 | 0.00 | 0.00 | 82 | 1035.4 |
| 20260503031857 | 41 | 255 | 3.5 | 6.1 | 0.00 | 0.00 | 0.00 | 81 | 1035.7 |
| 20260503031355 | 41 | 254 | 2.6 | 6.1 | 0.00 | 0.00 | 0.00 | 81 | 1035.8 |
| 20260503030851 | 41 | 255 | 5.2 | 7.8 | 0.00 | 0.00 | 0.00 | 81 | 1035.5 |
| 20260503030347 | 41 | 236 | 2.6 | 6.1 | 0.00 | 0.00 | 0.00 | 81 | 1035.7 |
| 20260503025844 | 41 | 274 | 1.7 | 6.1 | 0.00 | 0.00 | 0.00 | 81 | 1036.0 |
| 20260503025341 | 41 | 274 | 2.6 | 6.1 | 0.00 | 0.00 | 0.00 | 81 | 1035.8 |
| 20260503024838 | 41 | 244 | 4.3 | 7.0 | 0.00 | 0.00 | 0.00 | 81 | 1035.9 |
| 20260503024335 | 41 | 254 | 3.5 | 5.2 | 0.00 | 0.00 | 0.00 | 81 | 1035.8 |
| 20260503023832 | 41 | 269 | 1.7 | 6.1 | 0.00 | 0.00 | 0.00 | 80 | 1035.8 |
| 20260503023329 | 41 | 255 | 4.3 | 7.8 | 0.00 | 0.00 | 0.00 | 81 | 1036.0 |
| 20260503022826 | 41 | 279 | 0.0 | 5.2 | 0.00 | 0.00 | 0.00 | 82 | 1036.1 |
| 20260503022325 | 41 | 249 | 3.5 | 3.5 | 0.00 | 0.00 | 0.00 | 81 | 1036.1 |
| 20260503021822 | 41 | 263 | 3.5 | 7.0 | 0.00 | 0.00 | 0.00 | 81 | 1036.0 |
| 20260503021319 | 41 | 226 | 2.6 | 4.3 | 0.00 | 0.00 | 0.00 | 81 | 1036.1 |
| 20260503020816 | 41 | 339 | 0.9 | 7.8 | 0.00 | 0.00 | 0.00 | 80 | 1036.1 |
| 20260503020314 | 41 | 263 | 4.3 | 8.7 | 0.00 | 0.00 | 0.00 | 79 | 1036.2 |
| 20260503015810 | 41 | 261 | 3.5 | 7.0 | 0.00 | 0.00 | 0.00 | 80 | 1036.2 |
| 20260503015307 | 41 | 251 | 3.5 | 6.1 | 0.00 | 0.00 | 0.00 | 81 | 1036.1 |
| 20260503014803 | 41 | 289 | 6.1 | 9.6 | 0.00 | 0.00 | 0.00 | 82 | 1036.1 |
| 20260503014301 | 41 | 293 | 1.7 | 3.5 | 0.00 | 0.00 | 0.00 | 82 | 1036.1 |
| 20260503013758 | 41 | 231 | 0.0 | 7.8 | 0.00 | 0.00 | 0.00 | 81 | 1036.2 |
| 20260503013255 | 41 | 285 | 2.6 | 7.0 | 0.00 | 0.00 | 0.00 | 81 | 1036.3 |
| 20260503012752 | 41 | 278 | 2.6 | 5.2 | 0.00 | 0.00 | 0.00 | 81 | 1036.2 |
| 20260503012250 | 41 | 230 | 4.3 | 6.1 | 0.00 | 0.00 | 0.00 | 80 | 1036.1 |
| 20260503011746 | 41 | 310 | 2.6 | 9.6 | 0.00 | 0.00 | 0.00 | 80 | 1036.1 |
| 20260503011243 | 41 | 259 | 3.5 | 6.1 | 0.00 | 0.00 | 0.00 | 80 | 1036.1 |
| 20260503010739 | 41 | 280 | 3.5 | 5.2 | 0.00 | 0.00 | 0.00 | 80 | 1036.1 |
| 20260503010236 | 41 | 257 | 2.6 | 7.8 | 0.00 | 0.00 | 0.00 | 80 | 1036.1 |
| 20260503005734 | 41 | 266 | 3.5 | 6.1 | 0.00 | 0.00 | 0.00 | 80 | 1036.0 |
| 20260503005231 | 41 | 223 | 1.7 | 5.2 | 0.00 | 0.00 | 0.00 | 79 | 1036.2 |
| 20260503004727 | 41 | 277 | 6.1 | 8.7 | 0.00 | 0.00 | 0.00 | 79 | 1035.8 |
| 20260503004226 | 41 | 259 | 4.3 | 6.1 | 0.00 | 0.00 | 0.00 | 79 | 1036.0 |
| 20260503003722 | 41 | 262 | 3.5 | 8.7 | 0.00 | 0.00 | 0.00 | 79 | 1035.8 |
| 20260503003219 | 41 | 260 | 3.5 | 9.6 | 0.00 | 0.00 | 0.00 | 78 | 1036.0 |
| 20260503002716 | 41 | 262 | 2.6 | 7.8 | 0.00 | 0.00 | 0.00 | 79 | 1035.9 |
| 20260503002213 | 41 | 268 | 3.5 | 7.0 | 0.00 | 0.00 | 0.00 | 79 | 1036.0 |
| 20260503001709 | 41 | 272 | 5.2 | 7.0 | 0.00 | 0.00 | 0.00 | 78 | 1036.1 |
| 20260503001205 | 41 | 283 | 2.6 | 6.1 | 0.00 | 0.00 | 0.00 | 79 | 1035.9 |
| 20260503000703 | 41 | 257 | 4.3 | 10.4 | 0.00 | 0.00 | 0.00 | 79 | 1036.0 |
| 20260503000201 | 41 | 285 | 4.3 | 8.7 | 0.00 | 0.00 | 0.00 | 78 | 1035.9 |
| 20260502235657 | 41 | 249 | 6.1 | 8.7 | 0.00 | 0.00 | 0.00 | 78 | 1035.8 |
| 20260502235155 | 41 | 274 | 3.5 | 8.7 | 0.00 | 0.00 | 0.00 | 78 | 1035.9 |
| 20260502234651 | 41 | 266 | 3.5 | 7.8 | 0.00 | 0.00 | 0.00 | 78 | 1035.8 |
| 20260502234149 | 41 | 271 | 3.5 | 6.1 | 0.00 | 0.00 | 0.00 | 77 | 1035.8 |
| 20260502233644 | 41 | 256 | 3.5 | 6.1 | 0.00 | 0.00 | 0.00 | 79 | 1035.8 |
| 20260502233141 | 41 | 261 | 4.3 | 7.0 | 0.00 | 0.00 | 0.00 | 78 | 1035.9 |
| 20260502232637 | 41 | 304 | 2.6 | 10.4 | 0.00 | 0.00 | 0.00 | 79 | 1035.9 |
| 20260502232135 | 41 | 291 | 0.0 | 7.8 | 0.00 | 0.00 | 0.00 | 78 | 1035.8 |
| 20260502231631 | 41 | 298 | 7.8 | 11.3 | 0.00 | 0.00 | 0.00 | 78 | 1035.7 |
| 20260502231129 | 41 | 292 | 3.5 | 8.7 | 0.00 | 0.00 | 0.00 | 78 | 1035.9 |
| 20260502230627 | 42 | 300 | 2.6 | 7.0 | 0.00 | 0.00 | 0.00 | 77 | 1035.8 |
| 20260502230126 | 42 | 265 | 3.5 | 7.0 | 0.00 | 0.00 | 0.00 | 77 | 1035.9 |
| 20260502225620 | 41 | 295 | 3.5 | 8.7 | 0.00 | 0.00 | 0.00 | 77 | 1036.0 |
| 20260502225118 | 41 | 291 | 6.1 | 14.8 | 0.00 | 0.00 | 0.00 | 76 | 1035.7 |
| 20260502224614 | 41 | 252 | 6.1 | 8.7 | 0.00 | 0.00 | 0.00 | 76 | 1035.8 |
| 20260502224111 | 42 | 278 | 3.5 | 5.2 | 0.00 | 0.00 | 0.00 | 77 | 1035.7 |
| 20260502223610 | 42 | 275 | 4.3 | 10.4 | 0.00 | 0.00 | 0.00 | 76 | 1036.1 |
| 20260502223108 | 42 | 307 | 2.6 | 9.6 | 0.00 | 0.00 | 0.00 | 76 | 1036.0 |
| 20260502222604 | 42 | 281 | 4.3 | 9.6 | 0.00 | 0.00 | 0.00 | 76 | 1035.8 |
| 20260502222100 | 42 | 308 | 2.6 | 9.6 | 0.00 | 0.00 | 0.00 | 76 | 1035.8 |
| 20260502221556 | 42 | 283 | 4.3 | 12.2 | 0.00 | 0.00 | 0.00 | 75 | 1035.9 |
| 20260502221054 | 42 | 281 | 7.8 | 13.9 | 0.00 | 0.00 | 0.00 | 75 | 1036.1 |
| 20260502220549 | 42 | 266 | 3.5 | 7.0 | 0.00 | 0.00 | 0.00 | 75 | 1036.0 |
| 20260502220046 | 42 | 255 | 4.3 | 8.7 | 0.00 | 0.00 | 0.00 | 74 | 1035.8 |
| 20260502215543 | 42 | 272 | 5.2 | 14.8 | 0.00 | 0.00 | 0.00 | 73 | 1035.6 |
| 20260502215040 | 42 | 257 | 8.7 | 11.3 | 0.00 | 0.00 | 0.00 | 72 | 1035.7 |
| 20260502214537 | 43 | 313 | 7.8 | 13.0 | 0.00 | 0.00 | 0.00 | 70 | 1035.9 |
| 20260502214035 | 43 | 257 | 5.2 | 10.4 | 0.00 | 0.00 | 0.00 | 70 | 1035.7 |
| 20260502213531 | 42 | 290 | 5.2 | 11.3 | 0.00 | 0.00 | 0.00 | 70 | 1035.7 |
| 20260502213029 | 42 | 317 | 5.2 | 12.2 | 0.00 | 0.00 | 0.00 | 70 | 1035.8 |
| 20260502212528 | 44 | 279 | 8.7 | 13.0 | 0.00 | 0.00 | 0.00 | 67 | 1035.6 |
| 20260502212025 | 43 | 310 | 6.1 | 10.4 | 0.00 | 0.00 | 0.00 | 67 | 1035.5 |
| 20260502211520 | 45 | 236 | 7.0 | 17.4 | 0.00 | 0.00 | 0.00 | 67 | 1035.7 |
| 20260502211018 | 43 | 297 | 7.0 | 13.9 | 0.00 | 0.00 | 0.00 | 68 | 1035.7 |
| 20260502210515 | 44 | 264 | 4.3 | 8.7 | 0.00 | 0.00 | 0.00 | 68 | 1035.4 |
| 20260502210013 | 43 | 347 | 3.5 | 13.0 | 0.00 | 0.00 | 0.00 | 68 | 1035.7 |
| 20260502205509 | 44 | 282 | 4.3 | 13.9 | 0.00 | 0.00 | 0.00 | 67 | 1035.7 |
| 20260502205006 | 43 | 240 | 11.3 | 13.9 | 0.00 | 0.00 | 0.00 | 68 | 1035.6 |
| 20260502204502 | 44 | 267 | 3.5 | 11.3 | 0.00 | 0.00 | 0.00 | 67 | 1035.5 |
| 20260502204000 | 44 | 268 | 13.9 | 13.9 | 0.00 | 0.00 | 0.00 | 65 | 1035.6 |
| 20260502203457 | 45 | 258 | 6.1 | 10.4 | 0.00 | 0.00 | 0.00 | 64 | 1035.7 |
| 20260502202953 | 45 | 292 | 3.5 | 8.7 | 0.00 | 0.00 | 0.00 | 65 | 1035.5 |
| 20260502202450 | 44 | 328 | 2.6 | 13.0 | 0.00 | 0.00 | 0.00 | 63 | 1035.5 |
| 20260502201948 | 44 | 261 | 6.1 | 11.3 | 0.00 | 0.00 | 0.00 | 61 | 1035.6 |
| 20260502201444 | 45 | 288 | 6.1 | 14.8 | 0.00 | 0.00 | 0.00 | 64 | 1035.7 |
| 20260502200941 | 44 | 269 | 4.3 | 15.6 | 0.00 | 0.00 | 0.00 | 65 | 1035.6 |
| 20260502200436 | 44 | 277 | 4.3 | 14.8 | 0.00 | 0.00 | 0.00 | 66 | 1035.6 |
| 20260502195934 | 44 | 316 | 3.5 | 11.3 | 0.00 | 0.00 | 0.00 | 66 | 1035.7 |
| 20260502195431 | 44 | 299 | 5.2 | 8.7 | 0.00 | 0.00 | 0.00 | 66 | 1035.7 |
| 20260502194928 | 44 | 297 | 4.3 | 14.8 | 0.00 | 0.00 | 0.00 | 64 | 1035.8 |
| 20260502194425 | 45 | 257 | 4.3 | 12.2 | 0.00 | 0.00 | 0.00 | 63 | 1035.9 |
| 20260502193921 | 45 | 262 | 7.8 | 9.6 | 0.00 | 0.00 | 0.00 | 61 | 1036.0 |
| 20260502193418 | 46 | 286 | 4.3 | 9.6 | 0.00 | 0.00 | 0.00 | 62 | 1036.0 |
| 20260502192913 | 45 | 276 | 6.1 | 13.9 | 0.00 | 0.00 | 0.00 | 61 | 1036.2 |
| 20260502192410 | 44 | 259 | 5.2 | 18.2 | 0.00 | 0.00 | 0.00 | 61 | 1036.1 |
| 20260502191907 | 44 | 252 | 7.8 | 11.3 | 0.00 | 0.00 | 0.00 | 56 | 1036.2 |
| 20260502191405 | 45 | 278 | 7.8 | 10.4 | 0.00 | 0.00 | 0.00 | 56 | 1036.2 |
| 20260502190903 | 45 | 289 | 4.3 | 13.0 | 0.00 | 0.00 | 0.00 | 58 | 1036.2 |
| 20260502190359 | 45 | 323 | 7.0 | 10.4 | 0.00 | 0.00 | 0.00 | 56 | 1036.2 |
| 20260502185856 | 44 | 258 | 6.1 | 13.0 | 0.00 | 0.00 | 0.00 | 58 | 1036.1 |
| 20260502185351 | 45 | 265 | 9.6 | 13.9 | 0.00 | 0.00 | 0.00 | 55 | 1036.2 |
| 20260502184849 | 45 | 255 | 4.3 | 17.4 | 0.00 | 0.00 | 0.00 | 59 | 1035.9 |
| 20260502184344 | 47 | 334 | 10.4 | 10.4 | 0.00 | 0.00 | 0.00 | 60 | 1036.2 |
| 20260502183841 | 44 | 322 | 3.5 | 8.7 | 0.00 | 0.00 | 0.00 | 58 | 1036.0 |
| 20260502183337 | 44 | 261 | 7.0 | 10.4 | 0.00 | 0.00 | 0.00 | 57 | 1036.2 |
| 20260502182832 | 45 | 304 | 1.7 | 7.0 | 0.00 | 0.00 | 0.00 | 55 | 1036.0 |
| 20260502182327 | 44 | 273 | 3.5 | 10.4 | 0.00 | 0.00 | 0.00 | 56 | 1036.3 |
| 20260502181824 | 45 | 292 | 7.8 | 9.6 | 0.00 | 0.00 | 0.00 | 57 | 1036.3 |
| 20260502181324 | 45 | 298 | 1.7 | 7.0 | 0.00 | 0.00 | 0.00 | 54 | 1036.4 |
| 20260502180821 | 44 | 335 | 4.3 | 7.0 | 0.00 | 0.00 | 0.00 | 56 | 1036.3 |
| 20260502180318 | 45 | 304 | 7.0 | 9.6 | 0.00 | 0.00 | 0.00 | 59 | 1035.8 |
| 20260502170237 | 43 | 250 | 4.3 | 10.4 | 0.00 | 0.00 | 0.00 | 61 | 1036.0 |
| 20260502164225 | 44 | 307 | 7.0 | 13.9 | 0.00 | 0.00 | 0.00 | 64 | 1036.4 |
| 20260502163720 | 44 | 273 | 5.2 | 9.6 | 0.00 | 0.00 | 0.00 | 66 | 1036.3 |
| 20260502163217 | 44 | 258 | 5.2 | 10.4 | 0.00 | 0.00 | 0.00 | 63 | 1036.6 |
| 20260502162714 | 43 | 329 | 2.6 | 9.6 | 0.00 | 0.00 | 0.00 | 69 | 1036.6 |
| 20260502162211 | 43 | 275 | 4.3 | 10.4 | 0.00 | 0.00 | 0.00 | 66 | 1036.3 |
| 20260502161708 | 43 | 316 | 5.2 | 7.8 | 0.00 | 0.00 | 0.00 | 66 | 1036.4 |
| 20260502161204 | 42 | 275 | 4.3 | 8.7 | 0.00 | 0.00 | 0.00 | 66 | 1036.6 |
| 20260502160703 | 43 | 10 | 6.1 | 6.1 | 0.00 | 0.00 | 0.00 | 66 | 1036.4 |
| 20260502160202 | 42 | 290 | 2.6 | 10.4 | 0.00 | 0.00 | 0.00 | 74 | 1036.7 |
| 20260502152120 | 42 | 348 | 2.6 | 5.2 | 0.00 | 0.00 | 0.00 | 70 | 1036.8 |
| 20260502151617 | 43 | 273 | 2.6 | 7.8 | 0.00 | 0.00 | 0.00 | 70 | 1036.3 |
| 20260502151115 | 42 | 312 | 5.2 | 8.7 | 0.00 | 0.00 | 0.00 | 68 | 1036.3 |
| 20260502150612 | 42 | 353 | 4.3 | 7.0 | 0.00 | 0.00 | 0.00 | 65 | 1036.4 |
| 20260502150108 | 41 | 286 | 2.6 | 5.2 | 0.00 | 0.00 | 0.00 | 71 | 1036.4 |
| 20260502130457 | 40 | 260 | 1.7 | 4.3 | 0.00 | 0.00 | 0.00 | 75 | 1036.8 |
| 20260502123440 | 39 | 29 | 1.7 | 3.5 | 0.00 | 0.00 | 0.00 | 76 | 1036.7 |
| 20260502122937 | 39 | 329 | 1.7 | 4.3 | 0.00 | 0.00 | 0.00 | 75 | 1036.7 |
| 20260502122433 | 39 | 23 | 1.7 | 2.6 | 0.00 | 0.00 | 0.00 | 76 | 1036.7 |
| 20260502121931 | 38 | 268 | 2.6 | 3.5 | 0.00 | 0.00 | 0.00 | 76 | 1036.6 |
| 20260502121428 | 39 | 315 | 0.9 | 3.5 | 0.00 | 0.00 | 0.00 | 76 | 1036.7 |
| 20260502120926 | 39 | 330 | 1.7 | 2.6 | 0.00 | 0.00 | 0.00 | 76 | 1036.8 |
| 20260502120422 | 39 | 310 | 0.0 | 2.6 | 0.00 | 0.00 | 0.00 | 77 | 1036.7 |
| 20260502115919 | 38 | 40 | 0.0 | 2.6 | 0.00 | 0.00 | 0.00 | 77 | 1036.4 |
| 20260502115416 | 39 | 349 | 0.9 | 2.6 | 0.00 | 0.00 | 0.00 | 78 | 1036.7 |
| 20260502114912 | 39 | 279 | 1.7 | 3.5 | 0.00 | 0.00 | 0.00 | 77 | 1036.6 |
| 20260502114409 | 39 | 278 | 2.6 | 3.5 | 0.00 | 0.00 | 0.00 | 78 | 1036.6 |
| 20260502113906 | 38 | 290 | 3.5 | 3.5 | 0.00 | 0.00 | 0.00 | 79 | 1036.6 |
| 20260502113404 | 38 | 126 | 0.0 | 2.6 | 0.00 | 0.00 | 0.00 | 78 | 1036.6 |
| 20260502112902 | 38 | 335 | 0.0 | 2.6 | 0.00 | 0.00 | 0.00 | 79 | 1036.3 |
| 20260502112359 | 38 | 253 | 1.7 | 2.6 | 0.00 | 0.00 | 0.00 | 79 | 1036.6 |
| 20260502111856 | 38 | 231 | 1.7 | 2.6 | 0.00 | 0.00 | 0.00 | 80 | 1036.4 |
| 20260502111354 | 38 | 135 | 0.0 | 0.9 | 0.00 | 0.00 | 0.00 | 83 | 1036.3 |
| 20260502110851 | 38 | 119 | 0.0 | 1.7 | 0.00 | 0.00 | 0.00 | 85 | 1036.4 |
| 20260502110349 | 37 | 43 | 1.7 | 1.7 | 0.00 | 0.00 | 0.00 | 85 | 1036.3 |
| 20260502105846 | 37 | 107 | 0.9 | 2.6 | 0.00 | 0.00 | 0.00 | 86 | 1036.3 |
| 20260502105343 | 37 | 259 | 1.7 | 1.7 | 0.00 | 0.00 | 0.00 | 87 | 1036.2 |
| 20260502104841 | 37 | 102 | 1.7 | 1.7 | 0.00 | 0.00 | 0.00 | 88 | 1036.2 |
| 20260502104338 | 37 | 60 | 0.0 | 1.7 | 0.00 | 0.00 | 0.00 | 88 | 1036.1 |
| 20260502103835 | 37 | 189 | 0.9 | 3.5 | 0.00 | 0.00 | 0.00 | 88 | 1036.3 |
| 20260502103332 | 37 | 171 | 0.0 | 2.6 | 0.00 | 0.00 | 0.00 | 86 | 1036.3 |
| 20260502102830 | 38 | 198 | 2.6 | 2.6 | 0.00 | 0.00 | 0.00 | 81 | 1036.0 |
| 20260502102326 | 38 | 237 | 1.7 | 2.6 | 0.00 | 0.00 | 0.00 | 80 | 1036.0 |
| 20260502101824 | 38 | 44 | 0.0 | 1.7 | 0.00 | 0.00 | 0.00 | 82 | 1036.0 |
| 20260502101322 | 37 | 330 | 0.0 | 1.7 | 0.00 | 0.00 | 0.00 | 83 | 1035.7 |
| 20260502100820 | 37 | 149 | 0.0 | 2.6 | 0.00 | 0.00 | 0.00 | 83 | 1036.0 |
| 20260502100319 | 37 | 287 | 0.0 | 1.7 | 0.00 | 0.00 | 0.00 | 83 | 1035.9 |
| 20260502091252 | 37 | 103 | 0.0 | 1.7 | 0.00 | 0.00 | 0.00 | 86 | 1035.6 |
| 20260502090750 | 37 | 135 | 0.0 | 1.7 | 0.00 | 0.00 | 0.00 | 85 | 1035.5 |
| 20260502090246 | 37 | 126 | 0.0 | 1.7 | 0.00 | 0.00 | 0.00 | 85 | 1035.6 |
| 20260502071147 | 38 | 122 | 0.0 | 1.7 | 0.00 | 0.00 | 0.00 | 81 | 1034.9 |
| 20260502070645 | 38 | 160 | 0.0 | 5.2 | 0.00 | 0.00 | 0.00 | 81 | 1035.1 |
| 20260502070143 | 39 | 225 | 1.7 | 3.5 | 0.00 | 0.00 | 0.00 | 82 | 1034.9 |
| 20260502065641 | 39 | 225 | 1.7 | 2.6 | 0.00 | 0.00 | 0.00 | 82 | 1034.9 |
| 20260502065138 | 39 | 202 | 0.0 | 2.6 | 0.00 | 0.00 | 0.00 | 81 | 1034.9 |
| 20260502064637 | 39 | 181 | 1.7 | 3.5 | 0.00 | 0.00 | 0.00 | 81 | 1034.9 |
| 20260502064134 | 39 | 194 | 0.9 | 6.1 | 0.00 | 0.00 | 0.00 | 81 | 1035.2 |
| 20260502063631 | 39 | 192 | 2.6 | 4.3 | 0.00 | 0.00 | 0.00 | 81 | 1035.1 |
| 20260502063129 | 39 | 350 | 2.6 | 3.5 | 0.00 | 0.00 | 0.00 | 80 | 1035.0 |
| 20260502062626 | 40 | 197 | 1.7 | 1.7 | 0.00 | 0.00 | 0.00 | 79 | 1035.0 |
| 20260502062123 | 39 | 212 | 0.0 | 2.6 | 0.00 | 0.00 | 0.00 | 79 | 1035.1 |
| 20260502061622 | 39 | 77 | 0.9 | 2.6 | 0.00 | 0.00 | 0.00 | 79 | 1035.1 |
| 20260502061119 | 39 | 89 | 0.0 | 2.6 | 0.00 | 0.00 | 0.00 | 79 | 1035.2 |
| 20260502060619 | 39 | 179 | 0.9 | 1.7 | 0.00 | 0.00 | 0.00 | 80 | 1035.2 |
| 20260502060116 | 39 | 75 | 0.0 | 1.7 | 0.00 | 0.00 | 0.00 | 80 | 1035.2 |
| 20260502055613 | 39 | 39 | 2.6 | 5.2 | 0.00 | 0.00 | 0.00 | 80 | 1035.4 |
| 20260502055112 | 39 | 283 | 0.0 | 6.1 | 0.00 | 0.00 | 0.00 | 80 | 1035.4 |
| 20260502054610 | 39 | 156 | 0.9 | 3.5 | 0.00 | 0.00 | 0.00 | 82 | 1035.4 |
| 20260502054107 | 39 | 68 | 0.0 | 3.5 | 0.00 | 0.00 | 0.00 | 81 | 1035.2 |
| 20260502053604 | 39 | 41 | 2.6 | 3.5 | 0.00 | 0.00 | 0.00 | 81 | 1035.7 |
| 20260502053101 | 39 | 16 | 0.0 | 2.6 | 0.00 | 0.00 | 0.00 | 82 | 1035.6 |
| 20260502052600 | 39 | 260 | 2.6 | 4.3 | 0.00 | 0.00 | 0.00 | 83 | 1035.5 |
| 20260502052058 | 38 | 124 | 0.0 | 2.6 | 0.00 | 0.00 | 0.00 | 84 | 1035.5 |
| 20260502051555 | 38 | 246 | 0.0 | 2.6 | 0.00 | 0.00 | 0.00 | 84 | 1035.3 |